N5KR Weather Reports


Display with metric or nautical units.
time (UTC)temp
F
wind
direction
speed
MPH
gust
MPH
rain 1hr
in
rain 24hr
in
rain mn
in
humidity
%
barometer
mb
20260903202505 90 182 12.0 22.0 0.00 0.00 0.00 60 1012.8
20260903202005 90 172 10.0 17.0 0.00 0.00 0.00 61 1012.8
20260903201505 89 187 6.0 13.0 0.00 0.00 0.00 63 1012.9
20260903201005 89 173 12.0 17.0 0.00 0.00 0.00 62 1012.9
20260903200505 89 181 10.0 17.0 0.00 0.00 0.00 62 1012.9
20260903200005 90 195 7.0 13.0 0.00 0.00 0.00 60 1012.9
20260903195005 90 159 10.0 18.0 0.00 0.00 0.00 62 1012.9
20260903194505 90 162 9.0 14.0 0.00 0.00 0.00 61 1013.0
20260903194005 90 195 5.0 10.0 0.00 0.00 0.00 62 1013.0
20260903193505 90 179 7.0 13.0 0.00 0.00 0.00 60 1013.1
20260903193005 90 183 8.0 16.0 0.00 0.00 0.00 61 1013.2
20260903192505 90 173 11.0 18.0 0.00 0.00 0.00 62 1013.3
20260903192005 90 192 8.0 18.0 0.00 0.00 0.00 62 1013.4
20260903191505 89 181 9.0 16.0 0.00 0.00 0.00 63 1013.4
20260903191005 89 158 12.0 18.0 0.00 0.00 0.00 64 1013.4
20260903190505 88 166 12.0 18.0 0.00 0.00 0.00 64 1013.5
20260903185505 88 175 11.0 21.0 0.00 0.00 0.00 64 1013.7
20260903185004 88 182 10.0 16.0 0.00 0.00 0.00 65 1013.8
20260903183504 87 175 10.0 16.0 0.00 0.00 0.00 68 1013.9
20260903183005 86 180 9.0 18.0 0.00 0.00 0.00 70 1014.0
20260903182505 85 176 14.0 21.0 0.00 0.00 0.00 70 1014.2
20260903181005 84 199 8.0 15.0 0.00 0.00 0.00 73 1014.4
20260903180505 84 189 11.0 18.0 0.00 0.00 0.00 74 1014.4
20260903180004 84 182 12.0 21.0 0.00 0.00 0.00 74 1014.5
20260903175505 84 164 9.0 18.0 0.00 0.00 0.00 73 1014.5
20260903174505 84 169 10.0 14.0 0.00 0.00 0.00 73 1014.4
20260903174005 85 167 12.0 21.0 0.00 0.00 0.00 73 1014.6
20260903173504 85 145 7.0 15.0 0.00 0.00 0.00 72 1014.6
20260903173004 86 164 6.0 15.0 0.00 0.00 0.00 72 1014.6
20260903172504 85 168 9.0 17.0 0.00 0.00 0.00 74 1014.8
20260903172005 84 175 6.0 15.0 0.00 0.00 0.00 75 1014.8
20260903171004 84 169 5.0 13.0 0.00 0.00 0.00 76 1014.8
20260903170005 84 153 12.0 16.0 0.00 0.00 0.00 76 1014.8
20260903165505 84 169 9.0 15.0 0.00 0.00 0.00 76 1014.7
20260903165005 84 167 8.0 13.0 0.00 0.00 0.00 77 1014.8
20260903164505 84 178 6.0 10.0 0.00 0.00 0.00 77 1014.7
20260903164005 84 165 7.0 15.0 0.00 0.00 0.00 77 1014.8
20260903163005 84 156 5.0 10.0 0.00 0.00 0.00 77 1014.7
20260903162504 84 178 7.0 13.0 0.00 0.00 0.00 77 1014.8
20260903162005 83 161 7.0 13.0 0.00 0.00 0.00 78 1014.7
20260903161505 83 174 6.0 13.0 0.00 0.00 0.00 79 1014.7
20260903161005 83 174 6.0 14.0 0.00 0.00 0.00 79 1014.8
20260903160505 83 172 7.0 13.0 0.00 0.00 0.00 79 1014.7
20260903160005 82 200 5.0 12.0 0.00 0.00 0.00 79 1014.7
20260903155004 82 185 7.0 13.0 0.00 0.00 0.00 80 1014.5
20260903154504 82 163 7.0 13.0 0.00 0.00 0.00 80 1014.5
20260903154004 81 142 5.0 10.0 0.00 0.00 0.00 80 1014.5
20260903153504 81 158 4.0 9.0 0.00 0.00 0.00 80 1014.6
20260903153004 81 189 2.0 8.0 0.00 0.00 0.00 81 1014.5
20260903152505 81 178 6.0 13.0 0.00 0.00 0.00 81 1014.5
20260903152004 81 159 10.0 13.0 0.00 0.00 0.00 81 1014.6
20260903150505 81 162 7.0 12.0 0.00 0.00 0.00 82 1014.6
20260903150004 80 175 6.0 12.0 0.00 0.00 0.00 82 1014.6
20260903145004 80 178 4.0 9.0 0.00 0.00 0.00 83 1014.6
20260903144504 80 168 7.0 13.0 0.00 0.00 0.00 83 1014.6
20260903144004 80 168 2.0 8.0 0.00 0.00 0.00 83 1014.7
20260903143504 80 133 5.0 9.0 0.00 0.00 0.00 83 1014.7
20260903142504 80 163 6.0 12.0 0.00 0.00 0.00 83 1014.8
20260903142005 80 154 7.0 13.0 0.00 0.00 0.00 83 1014.7
20260903141504 80 143 4.0 13.0 0.00 0.00 0.00 84 1014.8
20260903141004 79 158 7.0 13.0 0.00 0.00 0.00 84 1014.7
20260903140504 79 172 4.0 10.0 0.00 0.00 0.00 85 1014.8
20260903140004 79 161 3.0 10.0 0.00 0.00 0.00 86 1014.9
20260903135504 78 168 5.0 13.0 0.00 0.00 0.00 86 1014.8
20260903134505 78 156 5.0 13.0 0.00 0.00 0.00 86 1014.7
20260903134005 78 132 6.0 13.0 0.00 0.00 0.00 85 1014.6
20260903133505 78 131 2.0 6.0 0.00 0.00 0.00 86 1014.6
20260903133004 78 136 1.0 7.0 0.00 0.00 0.00 86 1014.5
20260903132504 78 152 3.0 9.0 0.00 0.00 0.00 86 1014.4
20260903132004 78 126 4.0 10.0 0.00 0.00 0.00 86 1014.4
20260903131004 78 141 3.0 10.0 0.00 0.00 0.00 86 1014.3
20260903130504 78 170 2.0 7.0 0.00 0.00 0.00 86 1014.2
20260903130004 78 157 1.0 5.0 0.00 0.00 0.00 86 1014.3
20260903125004 78 123 4.0 8.0 0.00 0.00 0.00 86 1014.2
20260903124504 78 139 3.0 8.0 0.00 0.00 0.00 85 1014.2
20260903124004 78 135 4.0 9.0 0.00 0.00 0.00 85 1014.2
20260903123504 78 159 3.0 10.0 0.00 0.00 0.00 85 1014.1
20260903122504 78 143 3.0 6.0 0.00 0.00 0.00 85 1014.0
20260903122004 77 107 1.0 5.0 0.00 0.00 0.00 85 1014.0
20260903121504 77 133 1.0 5.0 0.00 0.00 0.00 85 1014.0
20260903121004 77 126 2.0 6.0 0.00 0.00 0.00 86 1013.9
20260903120504 77 138 2.0 5.0 0.00 0.00 0.00 86 1013.9
20260903120005 77 119 1.0 5.0 0.00 0.00 0.00 86 1013.7
20260903115504 77 165 2.0 6.0 0.00 0.00 0.00 86 1013.7
20260903115004 77 160 3.0 6.0 0.00 0.00 0.00 86 1013.6
20260903114504 77 154 3.0 8.0 0.00 0.00 0.00 87 1013.7
20260903114004 77 171 5.0 12.0 0.00 0.00 0.00 87 1013.6
20260903113004 77 170 4.0 9.0 0.00 0.00 0.00 86 1013.6
20260903112504 77 157 6.0 10.0 0.00 0.00 0.00 86 1013.7
20260903111504 77 149 5.0 10.0 0.00 0.00 0.00 85 1013.8
20260903110504 77 155 3.0 8.0 0.00 0.00 0.00 84 1013.8
20260903105504 78 125 3.0 9.0 0.00 0.00 0.00 84 1013.5
20260903105003 78 168 2.0 6.0 0.00 0.00 0.00 84 1013.4
20260903104503 78 166 2.0 8.0 0.00 0.00 0.00 83 1013.4
20260903104005 78 126 3.0 10.0 0.00 0.00 0.00 83 1013.4
20260903103504 78 122 1.0 7.0 0.00 0.00 0.00 84 1013.2
20260903103004 78 164 2.0 6.0 0.00 0.00 0.00 84 1013.2
20260903102503 78 238 1.0 5.0 0.00 0.00 0.00 84 1013.0
20260903102004 78 238 0.0 2.0 0.00 0.00 0.00 85 1013.1
20260903101504 77 239 1.0 6.0 0.00 0.00 0.00 86 1013.1
20260903101003 77 248 5.0 8.0 0.00 0.00 0.00 87 1013.3
20260903100504 77 230 0.0 2.0 0.00 0.00 0.00 88 1013.3
20260903100004 77 173 0.0 3.0 0.00 0.00 0.00 88 1013.4
20260903095504 77 173 1.0 2.0 0.00 0.00 0.00 89 1013.4
20260903095003 77 173 2.0 6.0 0.00 0.00 0.00 89 1013.3
20260903094504 77 146 2.0 5.0 0.00 0.00 0.00 90 1013.5
20260903094004 77 174 2.0 5.0 0.00 0.00 0.00 90 1013.4
20260903093503 76 165 3.0 6.0 0.00 0.00 0.00 90 1013.4
20260903092504 76 142 0.0 1.0 0.00 0.00 0.00 90 1013.4
20260903091504 76 142 2.0 5.0 0.00 0.00 0.00 90 1013.4
20260903090505 76 149 1.0 3.0 0.00 0.00 0.00 90 1013.4
20260903085005 76 165 0.0 2.0 0.00 0.00 0.00 89 1013.2
20260903084505 76 162 1.0 5.0 0.00 0.00 0.00 89 1013.2
20260903084004 76 133 3.0 8.0 0.00 0.00 0.00 88 1013.2
20260903083505 77 106 3.0 7.0 0.00 0.00 0.00 87 1013.2
20260903083005 77 107 5.0 8.0 0.00 0.00 0.00 86 1013.4
20260903082005 78 132 4.0 8.0 0.00 0.00 0.00 84 1013.3
20260903081504 78 125 5.0 10.0 0.00 0.00 0.00 83 1013.1
20260903080504 78 129 5.0 12.0 0.00 0.00 0.00 81 1013.2
20260903080005 79 128 6.0 10.0 0.00 0.00 0.00 80 1013.1
20260903075505 79 107 3.0 12.0 0.00 0.00 0.00 79 1013.1
20260903074504 79 127 5.0 10.0 0.00 0.00 0.00 78 1013.1
20260903074005 80 146 3.0 8.0 0.00 0.00 0.00 77 1013.1
20260903073504 80 121 6.0 10.0 0.00 0.00 0.00 77 1013.0
20260903073005 80 135 5.0 12.0 0.00 0.00 0.00 77 1013.1
20260903072005 80 115 5.0 12.0 0.00 0.00 0.00 77 1013.3
20260903071005 80 119 4.0 8.0 0.00 0.00 0.00 77 1013.4
20260903070504 80 113 1.0 6.0 0.00 0.00 0.00 77 1013.4
20260903070005 80 127 1.0 5.0 0.00 0.00 0.00 77 1013.4
20260903065504 80 144 1.0 3.0 0.00 0.00 0.00 77 1013.4
20260903065005 79 117 4.0 7.0 0.00 0.00 0.00 77 1013.3
20260903064505 79 109 4.0 8.0 0.00 0.00 0.00 77 1013.4
20260903064005 80 131 0.0 7.0 0.00 0.00 0.00 77 1013.5
20260903063005 80 100 3.0 8.0 0.00 0.00 0.00 76 1013.5
20260903062504 80 121 5.0 9.0 0.00 0.00 0.00 76 1013.4
20260903062005 80 107 4.0 9.0 0.00 0.00 0.00 76 1013.4
20260903060504 80 134 2.0 10.0 0.00 0.00 0.00 75 1013.6
20260903060004 80 140 5.0 12.0 0.00 0.00 0.00 75 1013.7
20260903055004 80 149 7.0 14.0 0.00 0.00 0.00 74 1014.0
20260903054504 80 132 7.0 13.0 0.00 0.00 0.00 74 1013.9
20260903054004 80 116 10.0 17.0 0.00 0.00 0.00 73 1013.7
20260903053505 80 113 7.0 17.0 0.00 0.00 0.00 73 1013.7
20260903053004 81 106 10.0 15.0 0.00 0.00 0.00 73 1013.9
20260903052504 81 105 8.0 15.0 0.00 0.00 0.00 72 1013.8
20260903052004 81 129 6.0 13.0 0.00 0.00 0.00 72 1014.1
20260903051504 81 105 10.0 17.0 0.00 0.00 0.00 72 1014.1
20260903051004 81 128 9.0 16.0 0.00 0.00 0.00 71 1014.2
20260903050504 82 100 9.0 17.0 0.00 0.00 0.00 70 1014.2
20260903050005 82 128 11.0 20.0 0.00 0.00 0.00 70 1014.2
20260903045504 82 108 10.0 15.0 0.00 0.00 0.00 70 1014.2
20260903045004 82 107 7.0 15.0 0.00 0.00 0.00 69 1014.0
20260903044505 82 115 5.0 13.0 0.00 0.00 0.00 68 1013.9
20260903043004 83 107 5.0 13.0 0.00 0.00 0.00 67 1014.0
20260903042004 83 109 10.0 18.0 0.00 0.00 0.00 66 1014.0
20260903041505 83 121 9.0 17.0 0.00 0.00 0.00 66 1014.0
20260903040004 84 119 5.0 12.0 0.00 0.00 0.00 64 1014.3
20260903035504 84 108 3.0 12.0 0.00 0.00 0.00 64 1014.2
20260903035004 84 107 8.0 13.0 0.00 0.00 0.00 64 1014.2
20260903034504 84 113 7.0 13.0 0.00 0.00 0.00 63 1014.3
20260903034004 85 134 6.0 12.0 0.00 0.00 0.00 63 1014.2
20260903033504 85 112 8.0 14.0 0.00 0.00 0.00 63 1014.2
20260903033004 85 127 5.0 13.0 0.00 0.00 0.00 62 1014.2
20260903032504 85 136 7.0 16.0 0.00 0.00 0.00 62 1014.1
20260903032004 85 143 5.0 12.0 0.00 0.00 0.00 61 1014.1
20260903031505 85 125 6.0 15.0 0.00 0.00 0.00 61 1014.2
20260903031004 85 143 6.0 18.0 0.00 0.00 0.00 61 1014.1
20260903030504 86 112 7.0 14.0 0.00 0.00 0.00 60 1014.1
20260903025504 86 139 8.0 16.0 0.00 0.00 0.00 59 1014.0
20260903024504 87 102 7.0 16.0 0.00 0.00 0.00 59 1014.0
20260903024004 87 138 6.0 13.0 0.00 0.00 0.00 59 1013.9
20260903023004 88 159 7.0 16.0 0.00 0.00 0.00 57 1013.6
20260903022504 88 164 7.0 16.0 0.00 0.00 0.00 56 1013.4
20260903022005 89 142 9.0 17.0 0.00 0.00 0.00 55 1013.4
20260903021504 89 161 6.0 12.0 0.00 0.00 0.00 54 1013.2
20260903021004 90 145 9.0 17.0 0.00 0.00 0.00 53 1013.0
20260903020504 90 146 8.0 18.0 0.00 0.00 0.00 52 1013.0
20260903020004 90 105 10.0 17.0 0.00 0.00 0.00 51 1013.0
20260903015004 90 154 7.0 15.0 0.00 0.00 0.00 50 1012.8
20260903014504 91 125 7.0 15.0 0.00 0.00 0.00 50 1012.7
20260903014004 91 135 8.0 13.0 0.00 0.00 0.00 50 1012.7
20260903013004 91 125 9.0 14.0 0.00 0.00 0.00 49 1012.5
20260903012504 91 128 5.0 14.0 0.00 0.00 0.00 49 1012.6
20260903012004 91 133 9.0 15.0 0.00 0.00 0.00 49 1012.5
20260903011504 92 146 7.0 14.0 0.00 0.00 0.00 49 1012.5
20260903011004 92 111 8.0 14.0 0.00 0.00 0.00 49 1012.4
20260903010504 92 146 8.0 15.0 0.00 0.00 0.00 49 1012.4
20260903010004 92 131 8.0 14.0 0.00 0.00 0.00 49 1012.3
20260903005504 92 158 9.0 14.0 0.00 0.00 0.00 48 1012.3
20260903004006 93 116 8.0 15.0 0.00 0.00 0.00 48 1012.2
20260903003506 93 119 7.0 16.0 0.00 0.00 0.00 48 1012.3
20260903002506 94 122 10.0 13.0 0.00 0.00 0.00 48 1012.2
20260903002006 94 123 7.0 15.0 0.00 0.00 0.00 48 1012.2
20260903001505 94 119 7.0 13.0 0.00 0.00 0.00 48 1012.2
20260903001006 94 137 4.0 13.0 0.00 0.00 0.00 48 1012.1
20260903000505 94 135 6.0 12.0 0.00 0.00 0.00 48 1012.2
20260903000006 94 146 5.0 12.0 0.00 0.00 0.00 49 1012.1
20260902235506 94 156 5.0 13.0 0.00 0.00 0.00 48 1012.3
20260902235006 94 152 6.0 15.0 0.00 0.00 0.00 48 1012.2
20260902234506 94 125 3.0 13.0 0.00 0.00 0.00 48 1012.2
20260902234006 94 117 7.0 12.0 0.00 0.00 0.00 47 1012.0
20260902232506 96 154 8.0 14.0 0.00 0.00 0.00 45 1012.0
20260902232006 97 143 7.0 14.0 0.00 0.00 0.00 43 1011.9
20260902231506 98 102 7.0 15.0 0.00 0.00 0.00 42 1011.9
20260902231005 98 86 7.0 13.0 0.00 0.00 0.00 41 1011.8
20260902230505 98 131 7.0 17.0 0.00 0.00 0.00 41 1011.9
20260902225505 98 94 5.0 12.0 0.00 0.00 0.00 41 1011.8
20260902225006 97 25 6.0 13.0 0.00 0.00 0.00 41 1011.9
20260902224505 98 66 4.0 10.0 0.00 0.00 0.00 40 1012.0
20260902224006 98 88 7.0 13.0 0.00 0.00 0.00 41 1011.9
20260902223506 98 49 7.0 14.0 0.00 0.00 0.00 41 1011.8
20260902223005 98 118 3.0 9.0 0.00 0.00 0.00 40 1012.0
20260902222506 98 132 5.0 13.0 0.00 0.00 0.00 40 1012.0
20260902221505 98 134 7.0 13.0 0.00 0.00 0.00 40 1012.0
20260902221006 98 119 7.0 13.0 0.00 0.00 0.00 39 1012.0
20260902220505 98 65 4.0 10.0 0.00 0.00 0.00 40 1012.1
20260902220006 99 110 7.0 13.0 0.00 0.00 0.00 39 1012.1
20260902215505 98 72 4.0 10.0 0.00 0.00 0.00 39 1012.1
20260902215005 99 61 7.0 13.0 0.00 0.00 0.00 40 1012.2
20260902214505 99 108 7.0 10.0 0.00 0.00 0.00 40 1012.2
20260902214005 99 176 5.0 12.0 0.00 0.00 0.00 39 1012.3
20260902213505 100 78 6.0 10.0 0.00 0.00 0.00 38 1012.4
20260902213005 99 122 8.0 15.0 0.00 0.00 0.00 38 1012.4
20260902212505 99 132 5.0 10.0 0.00 0.00 0.00 39 1012.4
20260902212006 99 81 5.0 12.0 0.00 0.00 0.00 39 1012.5
20260902211505 99 80 6.0 10.0 0.00 0.00 0.00 39 1012.5
20260902211005 99 106 8.0 14.0 0.00 0.00 0.00 39 1012.7
20260902210505 99 129 7.0 13.0 0.00 0.00 0.00 39 1012.8
20260902210005 99 78 6.0 12.0 0.00 0.00 0.00 40 1013.0
20260902205506 99 136 9.0 14.0 0.00 0.00 0.00 39 1013.0
20260902205005 100 78 7.0 13.0 0.00 0.00 0.00 39 1013.0
20260902204506 99 94 5.0 13.0 0.00 0.00 0.00 39 1013.0
20260902204005 99 92 7.0 17.0 0.00 0.00 0.00 39 1013.1
20260902203505 99 144 4.0 13.0 0.00 0.00 0.00 40 1013.2
20260902203005 99 125 8.0 13.0 0.00 0.00 0.00 40 1013.4